CW2615 Weather Reports


Display with metric or nautical units.
time (UTC)temp
F
wind
direction
speed
MPH
gust
MPH
rain 1hr
in
rain 24hr
in
rain mn
in
humidity
%
barometer
mb
20260502221816 51 0 0.0 0.0 0.00 0.00 0.00 49 1014.2
20260502221316 52 0 0.0 0.0 0.00 0.00 0.00 49 1014.3
20260502220816 53 0 0.0 0.0 0.00 0.00 0.00 49 1014.3
20260502220316 52 0 0.0 0.0 0.00 0.00 0.00 47 1014.3
20260502215816 52 0 0.0 0.0 0.00 0.00 0.00 50 1014.5
20260502215316 52 0 0.0 0.0 0.00 0.00 0.00 49 1014.5
20260502214816 53 0 0.0 0.0 0.00 0.00 0.00 50 1014.4
20260502213511 52 0 0.0 0.0 0.00 0.00 0.00 49 1014.7
20260502213011 52 0 0.0 0.0 0.00 0.00 0.00 49 1014.6
20260502212511 52 0 0.0 0.0 0.00 0.00 0.00 49 1014.6
20260502212031 53 0 0.0 0.0 0.00 0.00 0.00 49 1014.8
20260502211511 53 0 0.0 0.0 0.00 0.00 0.00 50 1014.8
20260502211011 52 0 0.0 0.0 0.00 0.00 0.00 48 1014.6
20260502210511 52 0 0.0 0.0 0.00 0.00 0.00 49 1014.8
20260502210011 52 0 0.0 0.0 0.00 0.00 0.00 49 1014.8
20260502205511 52 0 0.0 0.0 0.00 0.00 0.00 48 1015.0
20260502205011 52 0 0.0 0.0 0.00 0.00 0.00 49 1014.9
20260502204511 52 0 0.0 0.0 0.00 0.00 0.00 49 1014.9
20260502204011 52 0 0.0 0.0 0.00 0.00 0.00 49 1015.1
20260502203511 52 0 0.0 0.0 0.00 0.00 0.00 49 1015.1
20260502203011 52 0 0.0 0.0 0.00 0.00 0.00 48 1015.1
20260502202511 52 0 0.0 0.0 0.00 0.00 0.00 49 1015.1
20260502202011 52 0 0.0 0.0 0.00 0.00 0.00 49 1015.2
20260502201511 51 0 0.0 0.0 0.00 0.00 0.00 49 1015.3
20260502201011 51 0 0.0 0.0 0.00 0.00 0.00 50 1015.4
20260502200551 50 0 0.0 0.0 0.00 0.00 0.00 51 1015.5
20260502200011 50 0 0.0 0.0 0.00 0.00 0.00 49 1015.6
20260502195511 50 0 0.0 0.0 0.00 0.00 0.00 52 1015.6
20260502195011 51 0 0.0 0.0 0.00 0.00 0.00 50 1015.8
20260502194511 51 0 0.0 0.0 0.00 0.00 0.00 50 1015.8
20260502194011 51 0 0.0 0.0 0.00 0.00 0.00 49 1015.8
20260502193511 51 0 0.0 0.0 0.00 0.00 0.00 53 1015.9
20260502193011 51 0 0.0 0.0 0.00 0.00 0.00 50 1015.9
20260502192511 50 0 0.0 0.0 0.00 0.00 0.00 52 1016.0
20260502192011 50 0 0.0 0.0 0.00 0.00 0.00 50 1016.1
20260502191511 50 0 0.0 0.0 0.00 0.00 0.00 50 1016.1
20260502191011 50 0 0.0 0.0 0.00 0.00 0.00 50 1016.1
20260502190511 50 0 0.0 0.0 0.00 0.00 0.00 52 1016.1
20260502190011 50 0 0.0 0.0 0.00 0.00 0.00 52 1016.1
20260502185511 50 0 0.0 0.0 0.00 0.00 0.00 50 1016.1
20260502185011 50 0 0.0 0.0 0.00 0.00 0.00 49 1016.3
20260502184511 50 0 0.0 0.0 0.00 0.00 0.00 49 1016.3
20260502184011 51 0 0.0 0.0 0.00 0.00 0.00 49 1016.3
20260502183511 51 0 0.0 0.0 0.00 0.00 0.00 51 1016.3
20260502183011 50 0 0.0 0.0 0.00 0.00 0.00 49 1016.3
20260502182511 51 0 0.0 0.0 0.00 0.00 0.00 49 1016.3
20260502182011 51 0 0.0 0.0 0.00 0.00 0.00 49 1016.4
20260502181631 51 0 0.0 0.0 0.00 0.00 0.00 49 1016.5
20260502181011 51 0 0.0 0.0 0.00 0.00 0.00 49 1016.4
20260502180511 51 0 0.0 0.0 0.00 0.00 0.00 49 1016.4
20260502164011 50 0 0.0 0.0 0.00 0.00 0.00 51 1016.8
20260502163511 50 0 0.0 0.0 0.00 0.00 0.00 52 1016.8
20260502163011 50 0 0.0 0.0 0.00 0.00 0.00 52 1016.9
20260502162511 50 0 0.0 0.0 0.00 0.00 0.00 55 1016.9
20260502162011 50 0 0.0 0.0 0.00 0.00 0.00 55 1016.9
20260502161511 50 0 0.0 0.0 0.00 0.00 0.00 55 1017.0
20260502161011 49 0 0.0 0.0 0.00 0.00 0.00 55 1017.1
20260502160511 50 0 0.0 0.0 0.00 0.00 0.00 55 1017.0
20260502152011 47 0 0.0 0.0 0.00 0.00 0.00 56 1017.2
20260502151531 47 0 0.0 0.0 0.00 0.00 0.00 58 1017.2
20260502151031 47 0 0.0 0.0 0.00 0.00 0.00 58 1017.1
20260502150511 47 0 0.0 0.0 0.00 0.00 0.00 59 1017.2
20260502130511 35 0 0.0 0.0 0.00 0.00 0.00 94 1017.7
20260502123511 31 0 0.0 0.0 0.00 0.00 0.00 97 1017.8
20260502123011 31 0 0.0 0.0 0.00 0.00 0.00 98 1017.7
20260502122511 30 0 0.0 0.0 0.00 0.00 0.00 97 1017.8
20260502122011 30 0 0.0 0.0 0.00 0.00 0.00 97 1017.7
20260502121511 29 0 0.0 0.0 0.00 0.00 0.00 100 1017.8
20260502121011 28 0 0.0 0.0 0.00 0.00 0.00 100 1017.7
20260502120511 28 0 0.0 0.0 0.00 0.00 0.00 100 1017.8
20260502115511 27 0 0.0 0.0 0.00 0.00 0.00 100 1017.8
20260502115011 27 0 0.0 0.0 0.00 0.00 0.00 100 1017.6
20260502114511 26 0 0.0 0.0 0.00 0.00 0.00 99 1017.6
20260502114011 26 0 0.0 0.0 0.00 0.00 0.00 99 1017.7
20260502113511 25 0 0.0 0.0 0.00 0.00 0.00 99 1017.7
20260502113011 25 0 0.0 0.0 0.00 0.00 0.00 99 1017.6
20260502112531 25 0 0.0 0.0 0.00 0.00 0.00 99 1017.6
20260502112031 25 0 0.0 0.0 0.00 0.00 0.00 98 1017.6
20260502111511 24 0 0.0 0.0 0.00 0.00 0.00 97 1017.5
20260502111011 24 0 0.0 0.0 0.00 0.00 0.00 97 1017.6
20260502110531 24 0 0.0 0.0 0.00 0.00 0.00 97 1017.6
20260502110011 24 0 0.0 0.0 0.00 0.00 0.00 97 1017.6
20260502105511 24 0 0.0 0.0 0.00 0.00 0.00 97 1017.5
20260502105011 24 0 0.0 0.0 0.00 0.00 0.00 96 1017.5
20260502104551 24 0 0.0 0.0 0.00 0.00 0.00 96 1017.6
20260502104011 24 0 0.0 0.0 0.00 0.00 0.00 96 1017.5
20260502103511 24 0 0.0 0.0 0.00 0.00 0.00 97 1017.5
20260502103011 24 0 0.0 0.0 0.00 0.00 0.00 97 1017.6
20260502102531 24 0 0.0 0.0 0.00 0.00 0.00 97 1017.6
20260502102011 24 0 0.0 0.0 0.00 0.00 0.00 97 1017.6
20260502101511 24 0 0.0 0.0 0.00 0.00 0.00 97 1017.5
20260502101011 24 0 0.0 0.0 0.00 0.00 0.00 97 1017.5
20260502100511 25 0 0.0 0.0 0.00 0.00 0.00 97 1017.6
20260502091511 25 0 0.0 0.0 0.00 0.00 0.00 98 1017.3
20260502091051 25 0 0.0 0.0 0.00 0.00 0.00 98 1017.3
20260502090531 25 0 0.0 0.0 0.00 0.00 0.00 98 1017.2
20260502071511 27 0 0.0 0.0 0.00 0.00 0.00 81 1017.2
20260502071011 27 0 0.0 0.0 0.00 0.00 0.00 81 1017.1
20260502070511 27 0 0.0 0.0 0.00 0.00 0.00 81 1017.1
20260502070011 27 0 0.0 0.0 0.00 0.00 0.00 81 1017.2
20260502065511 27 0 0.0 0.0 0.00 0.00 0.00 81 1017.1
20260502065011 27 0 0.0 0.0 0.00 0.00 0.00 81 1017.2
20260502064511 27 0 0.0 0.0 0.00 0.00 0.00 81 1017.2
20260502064011 27 0 0.0 0.0 0.00 0.00 0.00 81 1017.2
20260502063511 27 0 0.0 0.0 0.00 0.00 0.00 81 1017.2
20260502063011 27 0 0.0 0.0 0.00 0.00 0.00 80 1017.2
20260502062511 27 0 0.0 0.0 0.00 0.00 0.00 80 1017.1
20260502062011 27 0 0.0 0.0 0.00 0.00 0.00 80 1017.2
20260502061511 27 0 0.0 0.0 0.00 0.00 0.00 80 1017.2
20260502061011 27 0 0.0 0.0 0.00 0.00 0.00 80 1017.2
20260502060611 27 0 0.0 0.0 0.00 0.00 0.00 80 1017.1
20260502060031 27 0 0.0 0.0 0.00 0.00 0.00 80 1017.2
20260502055511 27 0 0.0 0.0 0.00 0.00 0.00 80 1017.2
20260502055011 27 0 0.0 0.0 0.00 0.00 0.00 80 1017.1
20260502054511 28 0 0.0 0.0 0.00 0.00 0.00 80 1017.1
20260502054011 28 0 0.0 0.0 0.00 0.00 0.00 79 1017.2
20260502053511 28 0 0.0 0.0 0.00 0.00 0.00 80 1017.2
20260502053011 28 0 0.0 0.0 0.00 0.00 0.00 79 1017.1
20260502052511 28 0 0.0 0.0 0.00 0.00 0.00 79 1017.2
20260502052011 28 0 0.0 0.0 0.00 0.00 0.00 79 1017.1
20260502051511 28 0 0.0 0.0 0.00 0.00 0.00 79 1017.2
20260502051011 28 0 0.0 0.0 0.00 0.00 0.00 78 1017.1
20260502050531 28 0 0.0 0.0 0.00 0.00 0.00 79 1017.2
20260502050011 28 0 0.0 0.0 0.00 0.00 0.00 78 1017.1
20260502045511 28 0 0.0 0.0 0.00 0.00 0.00 78 1017.3
20260502045011 29 0 0.0 0.0 0.00 0.00 0.00 78 1017.1
20260502044511 29 0 0.0 0.0 0.00 0.00 0.00 78 1017.0
20260502044011 29 0 0.0 0.0 0.00 0.00 0.00 78 1017.2
20260502043511 29 0 0.0 0.0 0.00 0.00 0.00 78 1017.2
20260502043011 30 0 0.0 0.0 0.00 0.00 0.00 77 1017.2
20260502042511 30 0 0.0 0.0 0.00 0.00 0.00 77 1017.2
20260502042011 30 0 0.0 0.0 0.00 0.00 0.00 77 1017.2
20260502041511 30 0 0.0 0.0 0.00 0.00 0.00 77 1017.1
20260502041011 31 0 0.0 0.0 0.00 0.00 0.00 77 1017.1
20260502040511 31 0 0.0 0.0 0.00 0.00 0.00 76 1017.2
20260502040011 31 0 0.0 0.0 0.00 0.00 0.00 76 1017.1
20260502035511 32 0 0.0 0.0 0.00 0.00 0.00 76 1017.3
20260502035011 32 0 0.0 0.0 0.00 0.00 0.00 76 1017.3
20260502034511 32 0 0.0 0.0 0.00 0.00 0.00 76 1017.2
20260502034031 32 0 0.0 0.0 0.00 0.00 0.00 86 1017.2
20260502033511 32 0 0.0 0.0 0.00 0.00 0.00 85 1017.2
20260502033031 32 0 0.0 0.0 0.00 0.00 0.00 85 1017.2
20260502032511 33 0 0.0 0.0 0.00 0.00 0.00 85 1017.1
20260502032011 33 0 0.0 0.0 0.00 0.00 0.00 85 1017.2
20260502031511 33 0 0.0 0.0 0.00 0.00 0.00 85 1017.2
20260502031011 33 0 0.0 0.0 0.00 0.00 0.00 84 1017.2
20260502030511 34 0 0.0 0.0 0.00 0.00 0.00 84 1017.2
20260502030011 34 0 0.0 0.0 0.00 0.00 0.00 84 1017.2
20260502025511 34 0 0.0 0.0 0.00 0.00 0.00 83 1017.3
20260502025011 34 0 0.0 0.0 0.00 0.00 0.00 83 1017.2
20260502024531 34 0 0.0 0.0 0.00 0.00 0.00 83 1017.3
20260502024011 35 0 0.0 0.0 0.00 0.00 0.00 83 1017.3
20260502023511 35 0 0.0 0.0 0.00 0.00 0.00 83 1017.3
20260502023011 35 0 0.0 0.0 0.00 0.00 0.00 82 1017.3
20260502022511 35 0 0.0 0.0 0.00 0.00 0.00 83 1017.3
20260502022011 35 0 0.0 0.0 0.00 0.00 0.00 83 1017.3
20260502021511 36 0 0.0 0.0 0.00 0.00 0.00 82 1017.4
20260502021011 36 0 0.0 0.0 0.00 0.00 0.00 82 1017.3
20260502020531 36 0 0.0 0.0 0.00 0.00 0.00 82 1017.3
20260502020031 36 0 0.0 0.0 0.00 0.00 0.00 82 1017.3
20260502015511 36 0 0.0 0.0 0.00 0.00 0.00 82 1017.3
20260502015031 36 0 0.0 0.0 0.00 0.00 0.00 82 1017.2
20260502014511 36 0 0.0 0.0 0.00 0.00 0.00 82 1017.2
20260502014011 36 0 0.0 0.0 0.00 0.00 0.00 82 1017.2
20260502013511 36 0 0.0 0.0 0.00 0.00 0.00 82 1017.1
20260502013011 36 0 0.0 0.0 0.00 0.00 0.00 81 1017.2
20260502012511 36 0 0.0 0.0 0.00 0.00 0.00 81 1017.1
20260502012011 36 0 0.0 0.0 0.00 0.00 0.00 81 1017.1
20260502011511 36 0 0.0 0.0 0.00 0.00 0.00 81 1017.2
20260502011011 37 0 0.0 0.0 0.00 0.00 0.00 81 1017.1
20260502010511 37 0 0.0 0.0 0.00 0.00 0.00 81 1017.0
20260502010011 37 0 0.0 0.0 0.00 0.00 0.00 80 1017.2
20260502005511 37 0 0.0 0.0 0.00 0.00 0.00 80 1017.1
20260502005011 37 0 0.0 0.0 0.00 0.00 0.00 79 1016.9
20260502004511 37 0 0.0 0.0 0.00 0.00 0.00 79 1016.9
20260502004011 37 0 0.0 0.0 0.00 0.00 0.00 78 1017.0
20260502003511 38 0 0.0 0.0 0.00 0.00 0.00 78 1016.9
20260502003031 38 0 0.0 0.0 0.00 0.00 0.00 78 1016.8
20260502002511 38 0 0.0 0.0 0.00 0.00 0.00 77 1016.9
20260502002011 38 0 0.0 0.0 0.00 0.00 0.00 76 1016.7
20260502001511 38 0 0.0 0.0 0.00 0.00 0.00 76 1016.7
20260502001011 38 0 0.0 0.0 0.00 0.00 0.00 75 1016.7
20260502000531 38 0 0.0 0.0 0.00 0.00 0.00 75 1016.7
20260502000031 38 0 0.0 0.0 0.00 0.00 0.00 75 1016.5
20260501235511 38 0 0.0 0.0 0.00 0.00 0.00 75 1016.6
20260501235011 38 0 0.0 0.0 0.00 0.00 0.00 74 1016.5
20260501234511 39 0 0.0 0.0 0.00 0.00 0.00 74 1016.5
20260501234011 39 0 0.0 0.0 0.00 0.00 0.00 74 1016.5
20260501233511 39 0 0.0 0.0 0.00 0.00 0.00 74 1016.5
20260501233011 39 0 0.0 0.0 0.00 0.00 0.00 75 1016.5
20260501232511 39 0 0.0 0.0 0.00 0.00 0.00 76 1016.4
20260501232011 39 0 0.0 0.0 0.00 0.00 0.00 74 1016.5
20260501231511 39 0 0.0 0.0 0.00 0.00 0.00 75 1016.5
20260501231011 39 0 0.0 0.0 0.00 0.00 0.00 74 1016.4
20260501230511 39 0 0.0 0.0 0.00 0.00 0.00 74 1016.5
20260501230011 40 0 0.0 0.0 0.00 0.00 0.00 75 1016.4
20260501225511 39 0 0.0 0.0 0.00 0.00 0.00 75 1016.3
20260501225011 40 0 0.0 0.0 0.00 0.00 0.00 75 1016.4
20260501224551 40 0 0.0 0.0 0.00 0.00 0.00 74 1016.5
20260501224011 40 0 0.0 0.0 0.00 0.00 0.00 74 1016.5
20260501223511 40 0 0.0 0.0 0.00 0.00 0.00 76 1016.4
20260501223011 40 0 0.0 0.0 0.00 0.00 0.00 74 1016.3
20260501222511 40 0 0.0 0.0 0.00 0.00 0.00 76 1016.4
20260501222011 40 0 0.0 0.0 0.00 0.00 0.00 77 1016.4